Flag for U.S.A. Weather past 2 weeks in Vevay, Indiana, U.S.A.

Now
74 °F

Broken clouds.


Feels Like: 76 °F
Forecast: 65 / 83 °F
Wind: 7 mph from Northeast

Location: Cincinnati / Northern Kentucky International Airport

Current Time: Jul 4, 2015 at 11:25:23 AM

Latest Report: Jul 4, 2015 at 10:52 AM


Visibility: 10 mi

Pressure: 29.99 "Hg

Humidity: 64%

Dew point: 61 °F

Location of VevayLocation

Historic Weather in Vevay — Graph

°F

Vevay temperature yesterday

Maximum temperature yesterday: 76 °F (at 1:52 PM)
Minimum temperature yesterday: 67 °F (at 6:52 AM)
Average temperature yesterday: 71 °F

Past Weeks' High & Low Weather Summary

 TemperatureHumidityPressure
High88 °F (Jun 23, 2:52 PM)100% (Jun 20, 8:52 AM)30.16 "Hg (Jun 20, 8:52 AM)
Low56 °F (Jun 28, 5:52 AM)33% (Jun 24, 1:52 PM)29.71 "Hg (Jun 27, 4:52 AM)
Average72 °F78%29.91 "Hg
* Reported Jun 19 9:52 AM — Jul 4 9:52 AM, Vevay, Weather by CustomWeather, © 2015

Note: Actual official high and low records may vary slightly from our data, if they occured in-between our weather recording intervals... More about our weather records

Advertising

Vevay weather history for previous 24 hours

 ConditionsComfort  
Time TempWeatherWind HumidityBarometerVisibility
9:52 AM
Sat, Jul 4
72 °FScattered clouds.6 mph66%29.98 "Hg10 mi
8:52 AM70 °FMostly cloudy.6 mph71%29.97 "Hg9 mi
7:52 AM68 °FPartly sunny.6 mph82%29.95 "Hg7 mi
6:52 AM67 °FFog.7 mph90%29.93 "Hg5 mi
5:52 AM67 °FOvercast.6 mph90%29.91 "Hg7 mi
4:52 AM68 °FFog.5 mph87%29.89 "Hg6 mi
3:52 AM67 °FOvercast.5 mph90%29.89 "Hg7 mi
2:52 AM68 °FFog.6 mph87%29.89 "Hg4 mi
1:52 AM68 °FOvercast.3 mph87%29.89 "Hg7 mi
12:52 AM69 °FOvercast.5 mph81%29.89 "Hg6 mi
11:52 PM
Fri, Jul 3
70 °FOvercast.8 mph76%29.88 "Hg8 mi
10:52 PM71 °FOvercast.7 mph73%29.88 "Hg8 mi
9:52 PM71 °FMostly cloudy.7 mph76%29.86 "Hg9 mi
8:52 PM71 °FMostly cloudy.9 mph76%29.85 "Hg8 mi
7:52 PM73 °FMore clouds than sun.10 mph74%29.84 "Hg8 mi
6:52 PM73 °FMostly cloudy.10 mph74%29.83 "Hg8 mi
5:52 PM74 °FMostly cloudy.12 mph71%29.84 "Hg8 mi
4:52 PM74 °FMore clouds than sun.14 mph74%29.83 "Hg7 mi
3:52 PM74 °FMostly cloudy.9 mph74%29.84 "Hg7 mi
2:52 PM76 °FMostly cloudy.7 mph69%29.84 "Hg7 mi
1:52 PM76 °FMostly cloudy.7 mph72%29.86 "Hg7 mi
12:52 PM74 °FOvercast.6 mph74%29.87 "Hg7 mi
11:52 AM73 °FMostly cloudy.7 mph76%29.87 "Hg7 mi
11:02 AM72 °FMostly cloudy.7 mph78%29.89 "Hg7 mi
Weather by CustomWeather, © 2015

See weather overviewHow to use our weather pages